Погода в Сарти

Греция     40°05′44″N   23°58′36″E
темп.,
°C
ветер,
м/с
пор.,
м/с
влажн.,
%
обл.,
%
осадки,
мм/ч
давл.,
гПа
погр.,
м
5 марта, пт
пт523:00+11ююз23710 0.0 1020173
02:00+11ююз12750 0.0 1018188
05:00+11ююв128233 0.0 1017172
08:00+12с017817 0.0 101763
11:00+16ю11540 0.0 1017515
14:00+16юз335113 0.0 1016638
17:00+14юз456433 0.0 1016303
20:00+12юз226563 0.0 101669
6 марта, сб
сб623:00+13ююз126467 0.0 101739
02:00+12з117483 0.0 101828
05:00+12ссз0172100 0.0 101734
08:00+12с2268100 0.0 101969
11:00+16с2254100 0.0 1019604
14:00+17ссв134771 0.0 10191024
17:00+15вюв11560 0.0 1020313
20:00+12всв810788 0.1 1023740
7 марта, вс
вс723:00+10всв12158376 0.1 1026861
02:00+9всв11148788 0.3 1027864
05:00+8всв111382100 0.4 1027881
08:00+8всв9107699 0.6 1028963
11:00+8всв897092 0.0 1028887
14:00+10всв336058 0.0 1026853
17:00+9всв336327 0.0 1024598
20:00+7св236714 0.0 1024291
8 марта, пн
пн823:00+7с11698 0.0 1023190
02:00+7ссв116936 0.0 1022188
05:00+7в116874 0.0 1020244
08:00+8зсз016845 0.0 1020189
11:00+11ю236049 0.0 1019856
14:00+12ююз346768 0.0 1017894
17:00+11ююв3271100 0.0 1016641
20:00+10ююв237896 0.0 1016334
9 марта, вт
вт923:00+10ююв237679 0.0 1016359
02:00+11юв127489 0.0 1015345
05:00+11вюв2374100 0.0 1014386
08:00+11в4577100 0.1 1015490
11:00+13в456895 0.0 1015811
14:00+12в557196 0.0 1014768
17:00+12в456836 0.0 1014725
20:00+10св347418 0.0 1015472